Location: Thompson
(55.7500°N, 97.8670°W)
Time: 10:01:19
(UTC-05:00)

Cosmos 1666 - Visible Passes

Search period start: 30 April 2016 00:00
Search period end: 10 May 2016 00:00
Orbit: 502 x 529 km, 82.5° (Epoch: 29 April)

Date Brightness Start Highest point End Pass type
(mag) Time Alt. Az. Time Alt. Az. Time Alt. Az.
30 Apr 3.2 00:41:17 10° N 00:45:00 49° ENE 00:45:57 39° ESE visible
30 Apr 4.4 02:17:36 10° NW 02:20:25 20° W 02:20:58 19° W visible
01 May 3.4 00:26:23 10° N 00:30:03 42° ENE 00:31:12 32° ESE visible
01 May 4.2 02:02:31 10° NW 02:05:35 23° W 02:06:13 22° WSW visible
02 May 3.7 00:11:30 10° N 00:15:05 36° ENE 00:16:26 27° ESE visible
02 May 4.1 01:47:28 10° NNW 01:50:42 26° W 01:51:27 25° WSW visible
02 May 3.9 23:56:38 10° N 00:00:06 32° ENE 00:01:41 23° ESE visible
03 May 3.9 01:32:25 10° NNW 01:35:49 31° W 01:36:42 27° WSW visible
03 May 4.1 23:41:46 10° N 23:45:08 28° ENE 23:46:56 19° ESE visible
04 May 3.7 01:17:24 10° NNW 01:20:55 36° W 01:21:57 30° SW visible
04 May 4.3 23:26:55 10° N 23:30:07 24° ENE 23:32:12 16° ESE visible
05 May 3.5 01:02:23 10° NNW 01:06:02 42° W 01:07:13 32° SW visible
05 May 4.4 23:12:06 10° NNE 23:15:07 22° ENE 23:17:28 13° ESE visible
06 May 3.2 00:47:23 10° NNW 00:51:07 49° W 00:52:29 32° SSW visible
06 May 4.6 22:57:17 10° NNE 23:00:07 19° ENE 23:02:44 11° ESE visible
07 May 3.0 00:32:24 10° NNW 00:36:12 58° W 00:37:45 32° SSW visible
07 May 4.7 22:42:30 10° NNE 22:45:05 17° ENE 22:47:41 10° ESE visible
08 May 2.8 00:17:26 10° NNW 00:21:16 68° W 00:23:02 30° S visible
08 May 4.9 22:27:45 10° NNE 22:30:03 15° ENE 22:32:21 10° E visible
09 May 2.7 00:02:27 10° NNW 00:06:20 80° WSW 00:08:19 27° S visible
09 May 5.3 01:40:27 10° WNW 01:41:21 11° W 01:42:15 10° W visible
09 May 5.0 22:13:03 10° NNE 22:15:01 13° ENE 22:16:58 10° E visible
09 May 2.7 23:47:30 10° NNW 23:51:23 87° E 23:53:37 24° SSE visible
